Hourly Data Report for October 13, 2016

All times are specified in Local Standard Time (LST). Add 1 hour to adjust for Daylight Saving Time where and when it is observed.

KUGLUKTUK A
NUNAVUT

67°49'00.000" N
115°08'38.000" W
22.60 m
2300903
71938
YCO

Download Data

Hourly Data (October 2016)
Hourly Data Report for October 13, 2016
Temp Definition
°C
Dew Point Temp Definition
°C
Rel Hum Definition
%
Wind Dir Definition
10's deg

Wind Spd Definition
km/h
Visibility Definition
km
Stn Press Definition
kPa
Hmdx Definition


Wind Chill Definition


Weather Definition


TIME
00:00 Legend Double Dagger -4.9 -8.0 79 32 16 16.1 101.76   -11 Snow
01:00 Legend Double Dagger -6.0 -7.2 91 26 16 16.1 101.73   -12 Snow
02:00 Legend Double Dagger -6.3 -7.5 91 27 17 16.1 101.73   -13 Snow
03:00 Legend Double Dagger -5.4 -8.3 80 34 21 16.1 101.74   -12 Snow
04:00 Legend Double Dagger -5.4 -8.0 82 33 23 16.1 101.73   -13 Snow
05:00 Legend Double Dagger -5.5 -8.4 80 34 24 16.1 101.73   -13 Snow
06:00 Legend Double Dagger -5.4 -8.2 81 34 25 16.1 101.70   -13 Snow
07:00 Legend Double Dagger -5.5 -7.8 84 34 21 19.3 101.68   -12 Snow Grains
08:00 Legend Double Dagger -5.7 -8.5 81 33 18 19.3 101.67   -12 Snow Grains
09:00 Legend Double Dagger -5.8 -8.1 84 33 16 19.3 101.66   -12 Snow
10:00 Legend Double Dagger -5.9 -8.3 83 34 19 11.3 101.64   -13 Snow,Blowing Snow
11:00 Legend Double Dagger -6.1 -8.1 86 36 2 3.2 101.63   -7 Snow
12:00 Legend Double Dagger -6.0 -10.3 72 35 11 11.3 101.64   -11 Snow
13:00 Legend Double Dagger -6.0 -10.3 72 31 11 12.9 101.62   -11 Snow
14:00 Legend Double Dagger -5.9 -10.7 69 32 10 16.1 101.59   -10 Snow
15:00 Legend Double Dagger -6.2 -10.3 73 28 12 19.3 101.56   -11 Snow
16:00 Legend Double Dagger -7.0 -11.8 69 23 8 24.1 101.54   -11 LegendNANA
17:00 Legend Double Dagger -8.6 -11.8 78 28 14 24.1 101.52   -15 Snow
18:00 Legend Double Dagger -9.5 -12.0 82 27 13 19.3 101.47   -16 Snow
19:00 Legend Double Dagger -11.3 -13.1 87 22 16 24.1 101.45   -19 LegendNANA
20:00 Legend Double Dagger -10.4 -12.3 86 23 19 24.1 101.41   -18 Mainly Clear
21:00 Legend Double Dagger -12.1 -13.6 89 22 19 24.1 101.38   -20 LegendNANA
22:00 Legend Double Dagger -10.3 -11.9 88 23 18 16.1 101.32   -18 Ice Crystals
23:00 Legend Double Dagger -8.8 -10.3 89 24 20 8.1 101.29   -16 Ice Crystals

Notes on Data Quality.

Legend

  • E = Estimated
  • M = Missing
  • NA = Not Available
  • ‡ = Partner data that is not subject to review by the National Climate Archives
Date modified: